Location: Easthampton
(42.2676°N, 72.6690°W)
Time: 09:08:25
(UTC+00:00)

Gurwin Techsat 1B - Pass Details

Date: 31 March 2023
Orbit: 811 x 813 km, 98.9° (Epoch: 02 June)

Event Time Altitude Azimuth Distance (km) Brightness Sun altitude
Rises 09:09:16 0° 359° (N) 3,348 12.1 -16.3°
Reaches altitude 10° 09:12:11 10° 344° (NNW) 2,411 11.1 -15.8°
Maximum altitude 09:15:55 20° 299° (WNW) 1,809 10.1 -15.1°
Enters shadow 09:17:15 18° 279° (W) 1,894 10.0 -14.9°
